This is the latest recevied weather packets stored in our database for station/object DL6MAA-11. If no packets are shown the sender has not sent any weather packets the latest 10 day(s).
| Time | Temp. | Humidity | Pressure | Rain* | Wind** | Luminosity | Snow |
|---|---|---|---|---|---|---|---|
| 1777377436 | 18.33° C | 44% | 1014 hPa | 0 mm | - | 425 W/m² | - |
| 1777376243 | 18.33° C | 43% | 1014 hPa | 0 mm | - | 376 W/m² | - |
| 1777375946 | 18.33° C | 43% | 1014 hPa | 0 mm | - | 373 W/m² | - |
| 1777375648 | 18.33° C | 43% | 1014 hPa | 0 mm | - | 408 W/m² | - |
| 1777375353 | 18.33° C | 43% | 1014 hPa | 0 mm | - | 413 W/m² | - |
| 1777375051 | 18.33° C | 44% | 1014 hPa | 0 mm | - | 390 W/m² | - |
| 1777374737 | 17.78° C | 43% | 1014 hPa | 0 mm | - | 527 W/m² | - |
| 1777373553 | 18.33° C | 44% | 1014.2 hPa | 0 mm | - | 436 W/m² | - |
| 1777372655 | 17.78° C | 45% | 1014.3 hPa | 0 mm | - | 517 W/m² | - |
| 1777372340 | 17.22° C | 45% | 1014.3 hPa | 0 mm | - | 445 W/m² | - |
| 1777372045 | 17.22° C | 45% | 1014.3 hPa | 0 mm | - | 482 W/m² | - |
| 1777371753 | 17.22° C | 45% | 1014.3 hPa | 0 mm | - | 476 W/m² | - |
| 1777371453 | 17.22° C | 47% | 1014.3 hPa | 0 mm | - | 367 W/m² | - |
| 1777371138 | 17.22° C | 46% | 1014.3 hPa | 0 mm | - | 478 W/m² | - |
| 1777370839 | 16.67° C | 48% | 1014.3 hPa | 0 mm | - | 399 W/m² | - |
| 1777370548 | 16.67° C | 49% | 1014.3 hPa | 0 mm | - | 468 W/m² | - |
| 1777370252 | 16.11° C | 49% | 1014.5 hPa | 0 mm | - | 436 W/m² | - |
| 1777369653 | 16.11° C | 50% | 1014.5 hPa | 0 mm | - | 230 W/m² | - |
| 1777369048 | 15° C | 51% | 1014.7 hPa | 0 mm | - | 171 W/m² | - |
| 1777368750 | 15° C | 50% | 1014.7 hPa | 0 mm | - | 171 W/m² | - |
| 1777368452 | 15° C | 51% | 1014.9 hPa | 0 mm | - | 165 W/m² | - |
| 1777367854 | 14.44° C | 53% | 1014.9 hPa | 0 mm | - | 167 W/m² | - |
| 1777365437 | 12.78° C | 55% | 1014.7 hPa | 0 mm | - | 176 W/m² | - |
| 1777365152 | 12.78° C | 55% | 1014.7 hPa | 0 mm | - | 188 W/m² | - |
| 1777364837 | 12.22° C | 56% | 1014.8 hPa | 0 mm | - | 223 W/m² | - |
* Rain since midnight (hover to see other rain measurements)
** Current wind speed in m/s (hover to see current wind gust speed)